Flag for India Weather past 2 weeks in Pudukkottai, Tamil Nadu, India

Now
82 °F

Broken clouds.


Feels Like: 89 °F
Forecast: 75 / 90 °F
Wind: 6 mph from Northeast

Location: Tiruchchirapalli

Current Time: Oct 23, 2014 at 5:28:56 PM

Latest Report: Oct 23, 2014 at 4:40 PM


Visibility: 4 mi

Pressure: 29.80 "Hg

Humidity: 79%

Dew point: 75 °F

Location of PudukkottaiLocation

Historic Weather in Pudukkottai — Graph

°F

Pudukkottai temperature yesterday

Maximum temperature yesterday: 86 °F (at 1:10 PM)
Minimum temperature yesterday: 77 °F (at 12:10 AM)
Average temperature yesterday: 79 °F

Past Weeks' High & Low Weather Summary

 TemperatureHumidityPressure
High99 °F (Oct 12, 3:10 PM)100% (Oct 17, 9:40 PM)29.98 "Hg (Oct 17, 9:40 PM)
Low75 °F (Oct 17, 9:40 PM)42% (Oct 14, 2:10 PM)29.62 "Hg (Oct 11, 3:40 PM)
Average83 °F77%29.81 "Hg
* Reported Oct 8 3:40 PM — Oct 23 4:10 PM, Pudukkottai, Weather by CustomWeather, © 2014

Note: Actual official high and low records may vary slightly from our data, if they occured in-between our weather recording intervals... More about our weather records

Advertising

Pudukkottai weather history for previous 24 hours

 ConditionsComfort  
Time TempWeatherWind HumidityBarometerVisibility
4:10 PM
Oct 23
82 °FBroken clouds.7 mph79%29.80 "Hg4 mi
3:40 PM82 °FBroken clouds.6 mph79%29.83 "Hg3 mi
2:40 PM81 °FBroken clouds.5 mph84%29.83 "Hg2 mi
1:40 PM79 °FMore clouds than sun.2 mph89%29.89 "Hg1 mi
1:10 PM79 °FMore clouds than sun.2 mph89%29.89 "Hg1 mi
12:40 PM77 °FDrizzle. More clouds than sun.2 mph94%29.92 "Hg1 mi
12:10 PM77 °FDrizzle. More clouds than sun.2 mph94%29.92 "Hg1 mi
11:40 AM75 °FThunderstorms. More clouds than sun.3 mph94%29.95 "Hg1 mi
11:10 AM79 °FRain. More clouds than sun.7 mph94%29.95 "Hg1 mi
10:10 AM79 °FDrizzle. More clouds than sun.8 mph89%29.95 "Hg1 mi
9:40 AM77 °FDrizzle. More clouds than sun.6 mph94%29.95 "Hg1 mi
9:10 AM77 °FDrizzle. More clouds than sun.7 mph94%29.95 "Hg1 mi
8:40 AM77 °FDrizzle. More clouds than sun.3 mph94%29.95 "Hg1 mi
8:10 AM77 °FLight rain. More clouds than sun.2 mph94%29.95 "Hg1 mi
7:40 AM79 °FDrizzle. Broken clouds.3 mph94%29.92 "Hg1 mi
7:10 AM79 °FFog.No wind89%29.89 "Hg1 mi
6:40 AM77 °FDrizzle. Broken clouds.No wind94%29.89 "Hg1 mi
6:10 AM77 °FDrizzle. Mostly cloudy.2 mph94%29.86 "Hg1 mi
5:40 AM77 °FFog.No wind94%29.86 "Hg1 mi
4:40 AM77 °FFog.6 mph94%29.86 "Hg1 mi
4:10 AM77 °FFog.5 mph94%29.86 "Hg1 mi
3:10 AM77 °FFog.5 mph94%29.86 "Hg1 mi
2:40 AM77 °FFog.5 mph94%29.86 "Hg1 mi
1:10 AM77 °FFog.3 mph94%29.89 "Hg1 mi
12:40 AM77 °FFog.3 mph94%29.89 "Hg1 mi
12:10 AM77 °FFog.2 mph94%29.92 "Hg1 mi
11:40 PM
Oct 22
77 °FFog.2 mph94%29.92 "Hg1 mi
10:40 PM77 °FFog.2 mph94%29.95 "Hg1 mi
9:40 PM77 °FFog.No wind94%29.95 "Hg1 mi
9:10 PM77 °FFog.No wind94%29.92 "Hg1 mi
8:40 PM77 °FPartly cloudy.No wind94%29.92 "Hg2 mi
7:10 PM79 °FPartly cloudy.No wind94%29.89 "Hg2 mi
6:40 PM79 °FPartly cloudy.7 mph94%29.89 "Hg2 mi
6:10 PM81 °FBroken clouds.No wind89%29.86 "Hg2 mi
Weather by CustomWeather, © 2014

See weather overviewHow to use our weather pages